Year,Month,Day,Hour,Minute,Value (Times are PST for temperature in C)
2015,08,20,00,00,16.80
2015,08,20,00,01,16.80
2015,08,20,00,02,16.80
2015,08,20,00,03,16.80
2015,08,20,00,04,16.70
2015,08,20,00,05,16.70
2015,08,20,00,06,16.70
2015,08,20,00,07,16.70
2015,08,20,00,08,16.70
2015,08,20,00,09,16.70
2015,08,20,00,10,16.70
2015,08,20,00,11,16.70
2015,08,20,00,12,16.70
2015,08,20,00,13,16.70
2015,08,20,00,14,16.70
2015,08,20,00,15,16.70
2015,08,20,00,16,16.60
2015,08,20,00,17,16.60
2015,08,20,00,18,16.60
2015,08,20,00,19,16.60
2015,08,20,00,20,16.60
2015,08,20,00,21,16.60
2015,08,20,00,22,16.60
2015,08,20,00,23,16.60
2015,08,20,00,24,16.60
2015,08,20,00,25,16.60
2015,08,20,00,26,16.60
2015,08,20,00,27,16.60
2015,08,20,00,28,16.60
2015,08,20,00,29,16.60
2015,08,20,00,30,16.60
2015,08,20,00,31,16.60
2015,08,20,00,32,16.60
2015,08,20,00,33,16.60
2015,08,20,00,34,16.50
2015,08,20,00,35,16.50
2015,08,20,00,36,16.50
2015,08,20,00,37,16.50
2015,08,20,00,38,16.60
2015,08,20,00,39,16.50
2015,08,20,00,40,16.60
2015,08,20,00,41,16.60
2015,08,20,00,42,16.50
2015,08,20,00,43,16.50
2015,08,20,00,44,16.50
2015,08,20,00,45,16.50
2015,08,20,00,46,16.50
2015,08,20,00,47,16.50
2015,08,20,00,48,16.40
2015,08,20,00,49,16.40
2015,08,20,00,50,16.40
2015,08,20,00,51,16.40
2015,08,20,00,52,16.40
2015,08,20,00,53,16.40
2015,08,20,00,54,16.40
2015,08,20,00,55,16.40
2015,08,20,00,56,16.40
2015,08,20,00,57,16.40
2015,08,20,00,58,16.30
2015,08,20,00,59,16.30
2015,08,20,01,00,16.30
2015,08,20,01,01,16.30
2015,08,20,01,02,16.30
2015,08,20,01,03,16.30
2015,08,20,01,04,16.30
2015,08,20,01,05,16.40
2015,08,20,01,06,16.30
2015,08,20,01,07,16.40
2015,08,20,01,08,16.40
2015,08,20,01,09,16.40
2015,08,20,01,10,16.40
2015,08,20,01,11,16.40
2015,08,20,01,12,16.40
2015,08,20,01,13,16.40
2015,08,20,01,14,16.30
2015,08,20,01,15,16.30
2015,08,20,01,16,16.30
2015,08,20,01,17,16.30
2015,08,20,01,18,16.30
2015,08,20,01,19,16.30
2015,08,20,01,20,16.30
2015,08,20,01,21,16.30
2015,08,20,01,22,16.30
2015,08,20,01,23,16.30
2015,08,20,01,24,16.20
2015,08,20,01,25,16.20
2015,08,20,01,26,16.20
2015,08,20,01,27,16.20
2015,08,20,01,28,16.20
2015,08,20,01,29,16.20
2015,08,20,01,30,16.20
2015,08,20,01,31,16.20
2015,08,20,01,32,16.20
2015,08,20,01,33,16.20
2015,08,20,01,34,16.10
2015,08,20,01,35,16.10
2015,08,20,01,36,16.10
2015,08,20,01,37,16.10
2015,08,20,01,38,16.10
2015,08,20,01,39,16.10
2015,08,20,01,40,16.10
2015,08,20,01,41,16.10
2015,08,20,01,42,16.10
2015,08,20,01,43,16.10
2015,08,20,01,44,16.10
2015,08,20,01,45,16.10
2015,08,20,01,46,16.10
2015,08,20,01,47,16.10
2015,08,20,01,48,16.10
2015,08,20,01,49,16.10
2015,08,20,01,50,16.10
2015,08,20,01,51,16.20
2015,08,20,01,52,16.10
2015,08,20,01,53,16.10
2015,08,20,01,54,16.10
2015,08,20,01,55,16.10
2015,08,20,01,56,16.10
2015,08,20,01,57,16.10
2015,08,20,01,58,16.10
2015,08,20,01,59,16.10
2015,08,20,02,00,16.10
2015,08,20,02,01,16.10
2015,08,20,02,02,16.10
2015,08,20,02,03,16.10
2015,08,20,02,04,16.00
2015,08,20,02,05,16.00
2015,08,20,02,06,16.00
2015,08,20,02,07,16.00
2015,08,20,02,08,15.90
2015,08,20,02,09,15.90
2015,08,20,02,10,15.90
2015,08,20,02,11,15.90
2015,08,20,02,12,15.90
2015,08,20,02,13,15.90
2015,08,20,02,14,15.90
2015,08,20,02,15,15.90
2015,08,20,02,16,15.90
2015,08,20,02,17,15.80
2015,08,20,02,18,15.80
2015,08,20,02,19,15.80
2015,08,20,02,20,15.80
2015,08,20,02,22,15.80
2015,08,20,02,23,15.80
2015,08,20,02,24,15.80
2015,08,20,02,25,15.80
2015,08,20,02,26,15.80
2015,08,20,02,27,15.80
2015,08,20,02,28,15.80
2015,08,20,02,29,15.80
2015,08,20,02,30,15.70
2015,08,20,02,31,15.70
2015,08,20,02,32,15.70
2015,08,20,02,33,15.70
2015,08,20,02,34,15.70
2015,08,20,02,35,15.70
2015,08,20,02,36,15.70
2015,08,20,02,37,15.70
2015,08,20,02,38,15.70
2015,08,20,02,39,15.70
2015,08,20,02,40,15.70
2015,08,20,02,41,15.70
2015,08,20,02,42,15.70
2015,08,20,02,43,15.70
2015,08,20,02,44,15.70
2015,08,20,02,45,15.70
2015,08,20,02,46,15.70
2015,08,20,02,47,15.60
2015,08,20,02,48,15.60
2015,08,20,02,49,15.60
2015,08,20,02,50,15.60
2015,08,20,02,51,15.60
2015,08,20,02,52,15.60
2015,08,20,02,53,15.60
2015,08,20,02,54,15.60
2015,08,20,02,55,15.60
2015,08,20,02,56,15.60
2015,08,20,02,57,15.60
2015,08,20,02,58,15.60
2015,08,20,02,59,15.60
2015,08,20,03,00,15.60
2015,08,20,03,01,15.60
2015,08,20,03,02,15.60
2015,08,20,03,03,15.60
2015,08,20,03,04,15.60
2015,08,20,03,05,15.60
2015,08,20,03,06,15.50
2015,08,20,03,07,15.50
2015,08,20,03,08,15.50
2015,08,20,03,09,15.50
2015,08,20,03,10,15.50
2015,08,20,03,11,15.40
2015,08,20,03,12,15.40
2015,08,20,03,13,15.40
2015,08,20,03,14,15.40
2015,08,20,03,15,15.40
2015,08,20,03,16,15.40
2015,08,20,03,17,15.40
2015,08,20,03,18,15.40
2015,08,20,03,19,15.40
2015,08,20,03,20,15.30
2015,08,20,03,21,15.40
2015,08,20,03,22,15.30
2015,08,20,03,23,15.30
2015,08,20,03,24,15.30
2015,08,20,03,25,15.30
2015,08,20,03,26,15.30
2015,08,20,03,27,15.30
2015,08,20,03,28,15.30
2015,08,20,03,29,15.30
2015,08,20,03,30,15.30
2015,08,20,03,31,15.30
2015,08,20,03,32,15.30
2015,08,20,03,33,15.30
2015,08,20,03,34,15.20
2015,08,20,03,35,15.30
2015,08,20,03,36,15.20
2015,08,20,03,37,15.20
2015,08,20,03,38,15.20
2015,08,20,03,39,15.20
2015,08,20,03,40,15.20
2015,08,20,03,41,15.20
2015,08,20,03,42,15.10
2015,08,20,03,43,15.20
2015,08,20,03,44,15.10
2015,08,20,03,45,15.10
2015,08,20,03,46,15.10
2015,08,20,03,47,15.10
2015,08,20,03,48,15.20
2015,08,20,03,49,15.20
2015,08,20,03,50,15.20
2015,08,20,03,51,15.20
2015,08,20,03,52,15.20
2015,08,20,03,53,15.20
2015,08,20,03,54,15.20
2015,08,20,03,55,15.20
2015,08,20,03,56,15.20
2015,08,20,03,57,15.20
2015,08,20,03,58,15.20
2015,08,20,03,59,15.20
2015,08,20,04,00,15.10
2015,08,20,04,01,15.10
2015,08,20,04,02,15.10
2015,08,20,04,03,15.10
2015,08,20,04,04,15.10
2015,08,20,04,05,15.10
2015,08,20,04,06,15.00
2015,08,20,04,07,15.00
2015,08,20,04,08,15.00
2015,08,20,04,09,14.90
2015,08,20,04,10,14.90
2015,08,20,04,11,14.90
2015,08,20,04,12,14.90
2015,08,20,04,13,14.90
2015,08,20,04,14,14.90
2015,08,20,04,15,14.90
2015,08,20,04,16,14.90
2015,08,20,04,17,14.90
2015,08,20,04,18,14.80
2015,08,20,04,19,14.80
2015,08,20,04,20,14.80
2015,08,20,04,21,14.80
2015,08,20,04,22,14.80
2015,08,20,04,23,14.80
2015,08,20,04,24,14.80
2015,08,20,04,25,14.80
2015,08,20,04,26,14.80
2015,08,20,04,27,14.80
2015,08,20,04,28,14.80
2015,08,20,04,29,14.80
2015,08,20,04,30,14.70
2015,08,20,04,31,14.70
2015,08,20,04,32,14.70
2015,08,20,04,33,14.70
2015,08,20,04,34,14.70
2015,08,20,04,35,14.70
2015,08,20,04,36,14.70
2015,08,20,04,37,14.70
2015,08,20,04,38,14.70
2015,08,20,04,39,14.70
2015,08,20,04,40,14.70
2015,08,20,04,41,14.70
2015,08,20,04,42,14.70
2015,08,20,04,43,14.60
2015,08,20,04,44,14.60
2015,08,20,04,45,14.60
2015,08,20,04,46,14.60
2015,08,20,04,47,14.60
2015,08,20,04,48,14.60
2015,08,20,04,49,14.60
2015,08,20,04,50,14.60
2015,08,20,04,51,14.60
2015,08,20,04,52,14.60
2015,08,20,04,53,14.60
2015,08,20,04,54,14.60
2015,08,20,04,55,14.60
2015,08,20,04,56,14.60
2015,08,20,04,57,14.60
2015,08,20,04,58,14.60
2015,08,20,04,59,14.60
2015,08,20,05,00,14.60
2015,08,20,05,01,14.60
2015,08,20,05,02,14.60
2015,08,20,05,03,14.60
2015,08,20,05,04,14.60
2015,08,20,05,05,14.60
2015,08,20,05,06,14.60
2015,08,20,05,07,14.60
2015,08,20,05,08,14.50
2015,08,20,05,09,14.60
2015,08,20,05,10,14.50
2015,08,20,05,11,14.50
2015,08,20,05,12,14.50
2015,08,20,05,13,14.50
2015,08,20,05,14,14.50
2015,08,20,05,15,14.40
2015,08,20,05,16,14.40
2015,08,20,05,17,14.40
2015,08,20,05,18,14.40
2015,08,20,05,19,14.40
2015,08,20,05,20,14.40
2015,08,20,05,21,14.40
2015,08,20,05,22,14.40
2015,08,20,05,23,14.40
2015,08,20,05,24,14.40
2015,08,20,05,25,14.40
2015,08,20,05,26,14.40
2015,08,20,05,27,14.40
2015,08,20,05,28,14.40
2015,08,20,05,29,14.40
2015,08,20,05,30,14.40
2015,08,20,05,31,14.40
2015,08,20,05,32,14.40
2015,08,20,05,33,14.40
2015,08,20,05,34,14.40
2015,08,20,05,35,14.30
2015,08,20,05,36,14.30
2015,08,20,05,37,14.30
2015,08,20,05,38,14.30
2015,08,20,05,39,14.30
2015,08,20,05,40,14.30
2015,08,20,05,41,14.20
2015,08,20,05,42,14.20
2015,08,20,05,43,14.20
2015,08,20,05,44,14.10
2015,08,20,05,45,14.10
2015,08,20,05,46,14.10
2015,08,20,05,47,14.10
2015,08,20,05,48,14.10
2015,08,20,05,49,14.00
2015,08,20,05,50,14.00
2015,08,20,05,51,14.00
2015,08,20,05,52,13.90
2015,08,20,05,53,13.90
2015,08,20,05,54,13.90
2015,08,20,05,55,13.90
2015,08,20,05,56,13.90
2015,08,20,05,57,14.00
2015,08,20,05,58,14.00
2015,08,20,05,59,14.00
2015,08,20,06,00,14.00
2015,08,20,06,01,14.10
2015,08,20,06,02,14.10
2015,08,20,06,03,14.10
2015,08,20,06,04,14.10
2015,08,20,06,05,14.10
2015,08,20,06,06,14.10
2015,08,20,06,07,14.10
2015,08,20,06,08,14.10
2015,08,20,06,09,14.10
2015,08,20,06,10,14.00
2015,08,20,06,11,14.00
2015,08,20,06,12,14.00
2015,08,20,06,13,14.00
2015,08,20,06,14,13.90
2015,08,20,06,15,13.90
2015,08,20,06,16,13.90
2015,08,20,06,17,13.90
2015,08,20,06,18,13.80
2015,08,20,06,19,13.80
2015,08,20,06,20,13.80
2015,08,20,06,21,13.80
2015,08,20,06,22,13.80
2015,08,20,06,23,13.80
2015,08,20,06,24,13.80
2015,08,20,06,25,13.80
2015,08,20,06,26,13.80
2015,08,20,06,27,13.80
2015,08,20,06,28,13.80
2015,08,20,06,29,13.80
2015,08,20,06,30,13.80
2015,08,20,06,31,13.80
2015,08,20,06,32,13.80
2015,08,20,06,33,13.80
2015,08,20,06,34,13.80
2015,08,20,06,35,13.80
2015,08,20,06,36,13.80
2015,08,20,06,37,13.80
2015,08,20,06,38,13.80
2015,08,20,06,39,13.80
2015,08,20,06,40,13.80
2015,08,20,06,41,13.80
2015,08,20,06,42,13.90
2015,08,20,06,43,13.90
2015,08,20,06,44,13.90
2015,08,20,06,45,13.90
2015,08,20,06,46,13.90
2015,08,20,06,47,13.90
2015,08,20,06,48,13.90
2015,08,20,06,49,13.90
2015,08,20,06,50,13.90
2015,08,20,06,51,13.90
2015,08,20,06,52,13.90
2015,08,20,06,53,13.90
2015,08,20,06,54,13.90
2015,08,20,06,55,13.90
2015,08,20,06,56,13.90
2015,08,20,06,57,13.90
2015,08,20,06,58,13.90
2015,08,20,06,59,13.90
2015,08,20,07,00,13.90
2015,08,20,07,01,13.90
2015,08,20,07,02,13.90
2015,08,20,07,03,13.90
2015,08,20,07,04,13.90
2015,08,20,07,05,13.90
2015,08,20,07,06,13.90
2015,08,20,07,07,13.90
2015,08,20,07,08,14.00
2015,08,20,07,09,13.90
2015,08,20,07,10,13.90
2015,08,20,07,11,14.00
2015,08,20,07,12,13.90
2015,08,20,07,13,13.90
2015,08,20,07,14,14.00
2015,08,20,07,15,13.90
2015,08,20,07,16,13.90
2015,08,20,07,17,13.90
2015,08,20,07,18,14.00
2015,08,20,07,19,14.00
2015,08,20,07,20,14.00
2015,08,20,07,21,14.10
2015,08,20,07,22,14.10
2015,08,20,07,23,14.10
2015,08,20,07,24,14.10
2015,08,20,07,25,14.20
2015,08,20,07,26,14.20
2015,08,20,07,27,14.20
2015,08,20,07,28,14.30
2015,08,20,07,29,14.30
2015,08,20,07,30,14.40
2015,08,20,07,31,14.40
2015,08,20,07,32,14.50
2015,08,20,07,33,14.60
2015,08,20,07,34,14.60
2015,08,20,07,35,14.70
2015,08,20,07,36,14.70
2015,08,20,07,37,14.70
2015,08,20,07,38,14.80
2015,08,20,07,39,14.80
2015,08,20,07,40,14.80
2015,08,20,07,41,14.90
2015,08,20,07,42,14.90
2015,08,20,07,43,15.00
2015,08,20,07,44,15.00
2015,08,20,07,45,15.10
2015,08,20,07,46,15.10
2015,08,20,07,47,15.20
2015,08,20,07,48,15.20
2015,08,20,07,49,15.30
2015,08,20,07,50,15.30
2015,08,20,07,51,15.30
2015,08,20,07,52,15.30
2015,08,20,07,53,15.40
2015,08,20,07,54,15.40
2015,08,20,07,55,15.40
2015,08,20,07,56,15.40
2015,08,20,07,57,15.40
2015,08,20,07,58,15.50
2015,08,20,07,59,15.50
2015,08,20,08,00,15.50
2015,08,20,08,01,15.50
2015,08,20,08,02,15.50
2015,08,20,08,03,15.50
2015,08,20,08,04,15.50
2015,08,20,08,05,15.50
2015,08,20,08,06,15.50
2015,08,20,08,07,15.50
2015,08,20,08,08,15.50
2015,08,20,08,09,15.60
2015,08,20,08,10,15.60
2015,08,20,08,11,15.60
2015,08,20,08,12,15.60
2015,08,20,08,13,15.60
2015,08,20,08,14,15.60
2015,08,20,08,15,15.60
2015,08,20,08,16,15.60
2015,08,20,08,17,15.60
2015,08,20,08,18,15.60
2015,08,20,08,19,15.60
2015,08,20,08,20,15.60
2015,08,20,08,21,15.60
2015,08,20,08,22,15.60
2015,08,20,08,23,15.60
2015,08,20,08,24,15.60
2015,08,20,08,25,15.70
2015,08,20,08,26,15.70
2015,08,20,08,27,15.70
2015,08,20,08,28,15.80
2015,08,20,08,29,15.80
2015,08,20,08,30,15.80
2015,08,20,08,31,15.80
2015,08,20,08,32,15.80
2015,08,20,08,33,15.90
2015,08,20,08,34,15.90
2015,08,20,08,35,15.90
2015,08,20,08,36,15.90
2015,08,20,08,37,16.00
2015,08,20,08,38,16.00
2015,08,20,08,39,16.10
2015,08,20,08,40,16.10
2015,08,20,08,41,16.10
2015,08,20,08,42,16.20
2015,08,20,08,43,16.20
2015,08,20,08,44,16.20
2015,08,20,08,45,16.20
2015,08,20,08,46,16.20
2015,08,20,08,47,16.30
2015,08,20,08,48,16.30
2015,08,20,08,49,16.30
2015,08,20,08,50,16.30
2015,08,20,08,51,16.30
2015,08,20,08,52,16.30
2015,08,20,08,53,16.30
2015,08,20,08,54,16.30
2015,08,20,08,55,16.30
2015,08,20,08,56,16.40
2015,08,20,08,57,16.40
2015,08,20,08,58,16.40
2015,08,20,08,59,16.50
2015,08,20,09,00,16.50
2015,08,20,09,01,16.60
2015,08,20,09,02,16.60
2015,08,20,09,03,16.60
2015,08,20,09,04,16.70
2015,08,20,09,05,16.70
2015,08,20,09,06,16.70
2015,08,20,09,07,16.70
2015,08,20,09,08,16.80
2015,08,20,09,09,16.80
2015,08,20,09,10,16.80
2015,08,20,09,11,16.90
2015,08,20,09,12,16.90
2015,08,20,09,13,16.90
2015,08,20,09,14,16.90
2015,08,20,09,15,17.00
2015,08,20,09,16,17.10
2015,08,20,09,17,17.10
2015,08,20,09,18,17.10
2015,08,20,09,19,17.20
2015,08,20,09,20,17.20
2015,08,20,09,21,17.30
2015,08,20,09,22,17.30
2015,08,20,09,23,17.30
2015,08,20,09,24,17.30
2015,08,20,09,25,17.40
2015,08,20,09,26,17.40
2015,08,20,09,27,17.50
2015,08,20,09,28,17.60
2015,08,20,09,29,17.60
2015,08,20,09,30,17.70
2015,08,20,09,31,17.70
2015,08,20,09,32,17.70
2015,08,20,09,33,17.70
2015,08,20,09,34,17.70
2015,08,20,09,35,17.70
2015,08,20,09,36,17.70
2015,08,20,09,37,17.70
2015,08,20,09,38,17.80
2015,08,20,09,39,17.80
2015,08,20,09,40,17.80
2015,08,20,09,41,17.80
2015,08,20,09,42,17.80
2015,08,20,09,43,17.90
2015,08,20,09,44,17.90
2015,08,20,09,45,18.10
2015,08,20,09,46,18.20
2015,08,20,09,47,18.30
2015,08,20,09,48,18.40
2015,08,20,09,49,18.60
2015,08,20,09,50,18.70
2015,08,20,09,51,18.80
2015,08,20,09,52,18.90
2015,08,20,09,53,19.00
2015,08,20,09,54,19.10
2015,08,20,09,55,19.10
2015,08,20,09,56,19.20
2015,08,20,09,57,19.30
2015,08,20,09,58,19.40
2015,08,20,09,59,19.50
2015,08,20,10,00,19.60
2015,08,20,10,01,19.70
2015,08,20,10,02,19.80
2015,08,20,10,03,19.90
2015,08,20,10,04,19.90
2015,08,20,10,05,20.00
2015,08,20,10,06,20.10
2015,08,20,10,07,20.10
2015,08,20,10,08,20.10
2015,08,20,10,09,20.20
2015,08,20,10,10,20.30
2015,08,20,10,11,20.30
2015,08,20,10,12,20.30
2015,08,20,10,13,20.40
2015,08,20,10,14,20.40
2015,08,20,10,15,20.50
2015,08,20,10,16,20.60
2015,08,20,10,17,20.60
2015,08,20,10,18,20.60
2015,08,20,10,19,20.60
2015,08,20,10,20,20.60
2015,08,20,10,21,20.50
2015,08,20,10,22,20.40
2015,08,20,10,23,20.30
2015,08,20,10,24,20.20
2015,08,20,10,25,20.10
2015,08,20,10,26,20.00
2015,08,20,10,27,19.90
2015,08,20,10,28,19.90
2015,08,20,10,29,19.80
2015,08,20,10,30,19.80
2015,08,20,10,31,19.80
2015,08,20,10,32,19.80
2015,08,20,10,33,19.80
2015,08,20,10,34,19.80
2015,08,20,10,35,19.70
2015,08,20,10,36,19.70
2015,08,20,10,37,19.70
2015,08,20,10,38,19.70
2015,08,20,10,39,19.70
2015,08,20,10,40,19.70
2015,08,20,10,41,19.80
2015,08,20,10,42,19.80
2015,08,20,10,43,19.80
2015,08,20,10,44,19.80
2015,08,20,10,45,19.80
2015,08,20,10,46,19.80
2015,08,20,10,47,19.70
2015,08,20,10,48,19.70
2015,08,20,10,49,19.70
2015,08,20,10,50,19.70
2015,08,20,10,51,19.60
2015,08,20,10,52,19.70
2015,08,20,10,53,19.70
2015,08,20,10,54,19.80
2015,08,20,10,55,19.80
2015,08,20,10,56,19.90
2015,08,20,10,57,19.90
2015,08,20,10,58,20.00
2015,08,20,10,59,20.10
2015,08,20,11,00,20.20
2015,08,20,11,01,20.20
2015,08,20,11,02,20.20
2015,08,20,11,03,20.30
2015,08,20,11,04,20.40
2015,08,20,11,05,20.40
2015,08,20,11,06,20.60
2015,08,20,11,07,20.60
2015,08,20,11,08,20.60
2015,08,20,11,09,20.70
2015,08,20,11,10,20.80
2015,08,20,11,11,20.90
2015,08,20,11,12,21.00
2015,08,20,11,13,21.10
2015,08,20,11,14,21.20
2015,08,20,11,15,21.30
2015,08,20,11,16,21.40
2015,08,20,11,17,21.60
2015,08,20,11,19,21.80
2015,08,20,11,20,21.90
2015,08,20,11,21,22.00
2015,08,20,11,22,22.10
2015,08,20,11,23,22.20
2015,08,20,11,24,22.30
2015,08,20,11,25,22.50
2015,08,20,11,26,22.60
2015,08,20,11,27,22.70
2015,08,20,11,28,22.70
2015,08,20,11,29,22.70
2015,08,20,11,30,22.70
2015,08,20,11,31,22.60
2015,08,20,11,32,22.50
2015,08,20,11,33,22.40
2015,08,20,11,34,22.30
2015,08,20,11,35,22.30
2015,08,20,11,36,22.20
2015,08,20,11,37,22.10
2015,08,20,11,38,22.00
2015,08,20,11,39,21.90
2015,08,20,11,40,21.80
2015,08,20,11,41,21.80
2015,08,20,11,42,21.70
2015,08,20,11,43,21.70
2015,08,20,11,44,21.70
2015,08,20,11,45,21.60
2015,08,20,11,46,21.50
2015,08,20,11,47,21.40
2015,08,20,11,48,21.40
2015,08,20,11,49,21.30
2015,08,20,11,50,21.30
2015,08,20,11,51,21.30
2015,08,20,11,52,21.20
2015,08,20,11,53,21.20
2015,08,20,11,54,21.20
2015,08,20,11,55,21.10
2015,08,20,11,56,21.10
2015,08,20,11,57,21.10
2015,08,20,11,58,21.10
2015,08,20,11,59,21.10
2015,08,20,12,00,21.10
2015,08,20,12,01,21.10
2015,08,20,12,02,21.10
2015,08,20,12,03,21.00
2015,08,20,12,04,21.00
2015,08,20,12,05,21.00
2015,08,20,12,06,20.90
2015,08,20,12,07,20.90
2015,08,20,12,08,20.90
2015,08,20,12,09,20.90
2015,08,20,12,10,21.10
2015,08,20,12,11,21.10
2015,08,20,12,12,21.10
2015,08,20,12,13,21.10
2015,08,20,12,14,21.20
2015,08,20,12,15,21.20
2015,08,20,12,16,21.30
2015,08,20,12,17,21.30
2015,08,20,12,18,21.30
2015,08,20,12,19,21.30
2015,08,20,12,20,21.40
2015,08,20,12,21,21.40
2015,08,20,12,22,21.40
2015,08,20,12,23,21.40
2015,08,20,12,24,21.50
2015,08,20,12,25,21.50
2015,08,20,12,26,21.50
2015,08,20,12,27,21.40
2015,08,20,12,28,21.40
2015,08,20,12,29,21.40
2015,08,20,12,30,21.50
2015,08,20,12,31,21.60
2015,08,20,12,32,21.60
2015,08,20,12,33,21.70
2015,08,20,12,34,21.80
2015,08,20,12,35,22.00
2015,08,20,12,36,22.20
2015,08,20,12,37,22.40
2015,08,20,12,38,22.60
2015,08,20,12,39,22.80
2015,08,20,12,40,23.00
2015,08,20,12,41,23.20
2015,08,20,12,42,23.40
2015,08,20,12,43,23.70
2015,08,20,12,44,23.90
2015,08,20,12,45,24.00
2015,08,20,12,46,24.20
2015,08,20,12,47,24.30
2015,08,20,12,48,24.40
2015,08,20,12,49,24.50
2015,08,20,12,50,24.60
2015,08,20,12,51,24.70
2015,08,20,12,52,24.70
2015,08,20,12,53,24.80
2015,08,20,12,54,24.80
2015,08,20,12,55,24.80
2015,08,20,12,56,24.90
2015,08,20,12,57,24.90
2015,08,20,12,58,25.00
2015,08,20,12,59,24.90
2015,08,20,13,00,24.90
2015,08,20,13,01,24.80
2015,08,20,13,02,24.70
2015,08,20,13,03,24.70
2015,08,20,13,04,24.70
2015,08,20,13,05,24.70
2015,08,20,13,06,24.70
2015,08,20,13,07,24.80
2015,08,20,13,08,24.90
2015,08,20,13,09,24.90
2015,08,20,13,10,25.00
2015,08,20,13,11,25.10
2015,08,20,13,12,25.10
2015,08,20,13,13,25.20
2015,08,20,13,14,25.20
2015,08,20,13,15,25.20
2015,08,20,13,16,25.10
2015,08,20,13,17,25.10
2015,08,20,13,18,24.90
2015,08,20,13,19,24.80
2015,08,20,13,20,24.60
2015,08,20,13,21,24.30
2015,08,20,13,22,24.20
2015,08,20,13,23,24.10
2015,08,20,13,24,24.00
2015,08,20,13,25,23.90
2015,08,20,13,26,23.90
2015,08,20,13,27,23.90
2015,08,20,13,28,23.90
2015,08,20,13,29,23.90
2015,08,20,13,30,23.90
2015,08,20,13,31,23.90
2015,08,20,13,32,23.80
2015,08,20,13,33,23.70
2015,08,20,13,34,23.60
2015,08,20,13,35,23.60
2015,08,20,13,36,23.50
2015,08,20,13,37,23.40
2015,08,20,13,38,23.40
2015,08,20,13,39,23.30
2015,08,20,13,40,23.20
2015,08,20,13,41,23.10
2015,08,20,13,42,23.10
2015,08,20,13,43,23.10
2015,08,20,13,44,22.90
2015,08,20,13,45,22.80
2015,08,20,13,46,22.80
2015,08,20,13,47,22.70
2015,08,20,13,48,22.70
2015,08,20,13,49,22.70
2015,08,20,13,50,22.70
2015,08,20,13,51,22.70
2015,08,20,13,52,22.70
2015,08,20,13,53,22.70
2015,08,20,13,54,22.70
2015,08,20,13,55,22.70
2015,08,20,13,56,22.70
2015,08,20,13,57,22.70
2015,08,20,13,58,22.80
2015,08,20,13,59,22.80
2015,08,20,14,00,22.80
2015,08,20,14,01,22.80
2015,08,20,14,02,22.80
2015,08,20,14,03,22.80
2015,08,20,14,04,23.00
2015,08,20,14,05,23.10
2015,08,20,14,06,23.20
2015,08,20,14,07,23.20
2015,08,20,14,08,23.20
2015,08,20,14,09,23.30
2015,08,20,14,10,23.30
2015,08,20,14,11,23.30
2015,08,20,14,12,23.30
2015,08,20,14,13,23.20
2015,08,20,14,14,23.20
2015,08,20,14,15,23.20
2015,08,20,14,16,23.10
2015,08,20,14,17,23.10
2015,08,20,14,18,23.10
2015,08,20,14,19,23.10
2015,08,20,14,20,23.10
2015,08,20,14,21,23.10
2015,08,20,14,22,23.10
2015,08,20,14,23,23.00
2015,08,20,14,24,22.90
2015,08,20,14,25,22.80
2015,08,20,14,26,22.80
2015,08,20,14,27,22.70
2015,08,20,14,28,22.60
2015,08,20,14,29,22.60
2015,08,20,14,30,22.60
2015,08,20,14,31,22.60
2015,08,20,14,32,22.60
2015,08,20,14,33,22.50
2015,08,20,14,34,22.40
2015,08,20,14,35,22.40
2015,08,20,14,36,22.40
2015,08,20,14,37,22.30
2015,08,20,14,38,22.30
2015,08,20,14,39,22.30
2015,08,20,14,40,22.30
2015,08,20,14,41,22.40
2015,08,20,14,42,22.50
2015,08,20,14,43,22.60
2015,08,20,14,44,22.70
2015,08,20,14,45,22.80
2015,08,20,14,46,22.90
2015,08,20,14,47,23.00
2015,08,20,14,48,23.00
2015,08,20,14,49,23.00
2015,08,20,14,50,23.00
2015,08,20,14,51,23.00
2015,08,20,14,52,23.00
2015,08,20,14,53,23.00
2015,08,20,14,54,23.00
2015,08,20,14,55,23.00
2015,08,20,14,56,22.90
2015,08,20,14,57,22.80
2015,08,20,14,58,22.70
2015,08,20,14,59,22.60
2015,08,20,15,00,22.50
2015,08,20,15,01,22.40
2015,08,20,15,02,22.30
2015,08,20,15,03,22.30
2015,08,20,15,04,22.20
2015,08,20,15,05,22.10
2015,08,20,15,06,22.00
2015,08,20,15,07,21.90
2015,08,20,15,08,21.90
2015,08,20,15,09,21.90
2015,08,20,15,10,21.90
2015,08,20,15,11,22.00
2015,08,20,15,13,22.10
2015,08,20,15,14,22.20
2015,08,20,15,15,22.30
2015,08,20,15,16,22.40
2015,08,20,15,17,22.50
2015,08,20,15,18,22.60
2015,08,20,15,19,22.70
2015,08,20,15,20,22.70
2015,08,20,15,21,22.80
2015,08,20,15,22,22.80
2015,08,20,15,23,22.90
2015,08,20,15,24,22.90
2015,08,20,15,25,23.00
2015,08,20,15,26,23.10
2015,08,20,15,27,23.10
2015,08,20,15,28,23.20
2015,08,20,15,29,23.30
2015,08,20,15,30,23.30
2015,08,20,15,31,23.30
2015,08,20,15,32,23.40
2015,08,20,15,33,23.40
2015,08,20,15,34,23.50
2015,08,20,15,35,23.60
2015,08,20,15,36,23.60
2015,08,20,15,37,23.50
2015,08,20,15,38,23.40
2015,08,20,15,40,23.30
2015,08,20,15,41,23.30
2015,08,20,15,42,23.20
2015,08,20,15,43,23.20
2015,08,20,15,44,23.20
2015,08,20,15,45,23.20
2015,08,20,15,46,23.10
2015,08,20,15,47,23.10
2015,08,20,15,48,23.00
2015,08,20,15,49,22.90
2015,08,20,15,50,22.90
2015,08,20,15,51,22.80
2015,08,20,15,52,22.80
2015,08,20,15,53,22.80
2015,08,20,15,54,22.80
2015,08,20,15,55,22.90
2015,08,20,15,56,22.90
2015,08,20,15,57,23.00
2015,08,20,15,58,23.10
2015,08,20,15,59,23.10
2015,08,20,16,00,23.20
2015,08,20,16,01,23.10
2015,08,20,16,02,23.10
2015,08,20,16,03,23.10
2015,08,20,16,04,23.10
2015,08,20,16,05,23.10
2015,08,20,16,06,23.10
2015,08,20,16,07,23.10
2015,08,20,16,08,23.10
2015,08,20,16,09,23.20
2015,08,20,16,10,23.20
2015,08,20,16,11,23.30
2015,08,20,16,12,23.30
2015,08,20,16,13,23.30
2015,08,20,16,14,23.30
2015,08,20,16,15,23.30
2015,08,20,16,16,23.20
2015,08,20,16,17,23.20
2015,08,20,16,18,23.10
2015,08,20,16,19,23.00
2015,08,20,16,20,22.90
2015,08,20,16,21,22.70
2015,08,20,16,22,22.50
2015,08,20,16,23,22.30
2015,08,20,16,24,22.20
2015,08,20,16,25,22.10
2015,08,20,16,26,21.90
2015,08,20,16,27,21.70
2015,08,20,16,28,21.50
2015,08,20,16,29,21.40
2015,08,20,16,30,21.30
2015,08,20,16,31,21.30
2015,08,20,16,32,21.20
2015,08,20,16,33,21.30
2015,08,20,16,34,21.30
2015,08,20,16,35,21.40
2015,08,20,16,36,21.40
2015,08,20,16,37,21.50
2015,08,20,16,38,21.60
2015,08,20,16,39,21.60
2015,08,20,16,40,21.70
2015,08,20,16,41,21.70
2015,08,20,16,42,21.80
2015,08,20,16,43,21.80
2015,08,20,16,44,21.80
2015,08,20,16,45,21.80
2015,08,20,16,46,21.80
2015,08,20,16,47,21.80
2015,08,20,16,48,21.80
2015,08,20,16,49,21.80
2015,08,20,16,50,21.80
2015,08,20,16,51,21.70
2015,08,20,16,52,21.70
2015,08,20,16,53,21.60
2015,08,20,16,54,21.60
2015,08,20,16,55,21.60
2015,08,20,16,56,21.50
2015,08,20,16,57,21.40
2015,08,20,16,58,21.40
2015,08,20,16,59,21.50
2015,08,20,17,00,21.50
2015,08,20,17,01,21.40
2015,08,20,17,02,21.40
2015,08,20,17,03,21.30
2015,08,20,17,04,21.30
2015,08,20,17,05,21.30
2015,08,20,17,06,21.30
2015,08,20,17,07,21.30
2015,08,20,17,08,21.30
2015,08,20,17,09,21.30
2015,08,20,17,10,21.40
2015,08,20,17,11,21.40
2015,08,20,17,12,21.60
2015,08,20,17,13,21.70
2015,08,20,17,14,21.80
2015,08,20,17,15,21.90
2015,08,20,17,17,22.00
2015,08,20,17,18,22.10
2015,08,20,17,19,22.20
2015,08,20,17,20,22.20
2015,08,20,17,21,22.20
2015,08,20,17,22,22.30
2015,08,20,17,23,22.30
2015,08,20,17,24,22.40